Regional Weather Roundup
Issued by NWS State College, PA

Home | Current Version | Previous Version | Text Only | Print | Product List | Glossary On
Versions: 1 2 3 4 5 6 7 8 9 10 11 12 13 14 15 16 17 18 19 20 21 22 23 24 25 26 27 28 29 30 31 32 33 34 35 36 37 38 39 40 41 42 43 44 45 46 47 48 49 50
000
ASUS41 KCTP 170203
RWRCTP

REGIONAL WEATHER ROUNDUP
NATIONAL WEATHER SERVICE STATE COLLEGE PA
900 PM EST FRI FEB 16 2018

Note: "fair" indicates few or no clouds below 12,000 feet with no
significant weather and/or obstructions to visibility.

* = STATION THAT DOES NOT REPORT PRECIPITATION /E.G. RAIN...SNOW...ETC/
    THUNDER OR FOG.

PAZ002>004-007>009-013>016-020>023-029>032-170300-
WESTERN PENNSYLVANIA

CITY           SKY/WX    TMP DP  RH WIND       PRES   REMARKS
ERIE           FAIR      25  16  68 SW3       30.27S
MEADVILLE      FAIR      22  14  71 N3        30.23R
FRANKLIN*      FLURRIES  23  15  71 VRB7      30.23R WCI  15
NEW CASTLE     CLOUDY    28  20  71 NW9       30.27R
BEAVER COUNTY  CLOUDY    28  21  74 CALM      30.25R
BUTLER*        CLOUDY    27  19  72 VRB6      30.25R
PITTSBURGH INT CLOUDY    30  22  72 N9        30.23R
PITTSBURGH     CLOUDY    29  19  66 NW8       30.22R
INDIANA*       CLOUDY    28  21  74 NW9G15    30.24R
LATROBE        CLOUDY    30  23  74 NW14      30.23R
WASHINGTON CO* CLOUDY    31  23  72 N8        30.26R
$$

PAZ004>006-010>012-017>019-024>028-033>037-041-042-045-046-049>053-170300-
CENTRAL PENNSYLVANIA

CITY           SKY/WX    TMP DP  RH WIND       PRES   REMARKS
BRADFORD       CLOUDY    23  14  68 NW13      30.14R WCI  11
DUBOIS         CLOUDY    24  15  68 NW14G23   30.16R WCI  12
CLEARFIELD     MOCLDY    29  19  66 NW15G23   30.16R
JOHNSTOWN      CLOUDY    26  21  81 NW9G21    30.11R
ALTOONA        FAIR      30  20  66 NW14G24   30.14R
STATE COLLEGE  PTCLDY    30  19  64 NW9       30.15R
WILLIAMSPORT   FAIR      33  21  61 NW6       30.14R
SELINSGROVE    MOCLDY    36  22  56 NW6       30.15R
FT INDIANTOWN  FAIR      38  26  62 W6        30.12R
CAPITAL CITY   FAIR      40  25  55 NW10G17   30.15R
HARRISBURG     MOCLDY    38  25  59 NW16      30.13R
YORK           FAIR      37  28  70 NW9G17    30.14R
$$

PAZ038>040-043-044-047-048-054-055-060>062-067>071-170300-
EASTERN PENNSYLVANIA

CITY           SKY/WX    TMP DP  RH WIND       PRES   REMARKS
SCRANTON       MOCLDY    32  21  64 N9        30.10R
MOUNT POCONO   NOT AVBL
ALLENTOWN      FAIR      39  22  50 NW14G23   30.09R
QUAKERTOWN*    NOT AVBL
READING        FAIR      38  27  64 NW16      30.10R
LANCASTER      FAIR      40  28  62 NW16      30.11R
COATESVILLE    FAIR      39 N/A N/A N14       30.10R
POTTSTOWN      FAIR      39  25  57 NW7       30.10R
BLUE BELL      FAIR      39  27  60 CALM      30.10R
DOYLESTOWN     FAIR      39  32  76 N9G21     30.07R
WILLOW GROVE   NOT AVBL
NORTH PHILA    FAIR      43  27  53 N15G23    30.09R
PHILADELPHIA   MOCLDY    43  27  53 N16       30.08R
$$




USA.gov is the U.S. government's official web portal to all federal, state and local government web resources and services.